This is the latest recevied weather packets stored in our database for station/object KO6SRA-13. If no packets are shown the sender has not sent any weather packets the latest 10 day(s).
| Time | Temp. | Humidity | Pressure | Rain* | Wind** | Luminosity | Snow |
|---|---|---|---|---|---|---|---|
| 1787753771 | 16.67° C | 81% | 1016.3 hPa | 0 mm | - | 33 W/m² | - |
| 1787753470 | 16.67° C | 83% | 1016.3 hPa | 0 mm | - | 29 W/m² | - |
| 1787753169 | 16.11° C | 83% | 1016.3 hPa | 0 mm | - | 24 W/m² | - |
| 1787752864 | 16.11° C | 84% | 1016.3 hPa | 0 mm | - | 21 W/m² | - |
| 1787752563 | 15.56° C | 85% | 1016.3 hPa | 0 mm | - | 17 W/m² | - |
| 1787752259 | 15.56° C | 86% | 1016.3 hPa | 0 mm | - | 12 W/m² | - |
| 1787751957 | 15° C | 87% | 1016.3 hPa | 0 mm | - | 10 W/m² | - |
| 1787751653 | 15° C | 87% | 1016.1 hPa | 0 mm | - | 6 W/m² | - |
| 1787751348 | 15° C | 88% | 1015.9 hPa | 0 mm | - | 3 W/m² | - |
| 1787751043 | 15° C | 88% | 1016.1 hPa | 0 mm | - | 2 W/m² | - |
| 1787750738 | 14.44° C | 88% | 1015.9 hPa | 0 mm | - | 0 W/m² | - |
| 1787750438 | 14.44° C | 88% | 1015.9 hPa | 0 mm | - | 0 W/m² | - |
| 1787750133 | 14.44° C | 88% | 1016 hPa | 0 mm | - | 0 W/m² | - |
| 1787749830 | 14.44° C | 88% | 1015.9 hPa | 0 mm | - | 0 W/m² | - |
| 1787749525 | 15° C | 89% | 1015.7 hPa | 0 mm | - | 0 W/m² | - |
| 1787749220 | 15° C | 89% | 1015.7 hPa | 0 mm | - | 0 W/m² | - |
| 1787748916 | 15° C | 89% | 1015.9 hPa | 0 mm | - | 0 W/m² | - |
| 1787748615 | 15° C | 89% | 1015.9 hPa | 0 mm | - | 0 W/m² | - |
| 1787748311 | 15° C | 89% | 1015.7 hPa | 0 mm | - | 0 W/m² | - |
| 1787748007 | 14.44° C | 90% | 1015.9 hPa | 0 mm | - | 0 W/m² | - |
| 1787747706 | 14.44° C | 90% | 1015.8 hPa | 0 mm | - | 0 W/m² | - |
| 1787747401 | 14.44° C | 90% | 1016 hPa | 0 mm | - | 0 W/m² | - |
| 1787747095 | 14.44° C | 90% | 1015.8 hPa | 0 mm | - | 0 W/m² | - |
| 1787746793 | 14.44° C | 90% | 1016.1 hPa | 0 mm | - | 0 W/m² | - |
| 1787746491 | 14.44° C | 89% | 1016 hPa | 0 mm | - | 0 W/m² | - |
* Rain latest hour (hover to see other rain measurements)
** Current wind speed in m/s (hover to see current wind gust speed)